DECAYED

OBJECT F, 42830 (Decayed)

Orbit data source: Space-Track

You're viewing an Uncataloged Satellite

Recently launched and/or uncataloged satellites may have evolving metadata. Metadata may include but not limited to: Owner, Maufacturer, Bus, Motor, and Mission.

OBJECT F, 42830 was a satellite in LEO that was launched on Fri, 14 Jul 2017 UTC via a SOYUZ-2-1A launch vehicle from the Tyuratam Missile And Space Complex (TTMTR). Unknown objects in Earth's orbit typically refer to objects detected orbiting the Earth but have not yet been identified or cataloged. These objects could be anything from previously untracked satellites, spent rocket stages, debris from satellite collisions, or even natural meteoroids temporarily captured by Earth's gravity. This object's orbit decayed before it could be identified.

Loading next visibility...
Identifier
42830, 2017-042F
Orbit
Decayed
Country
Flag of TBDTBD
Related business
None
Manufacturer
Unknown
Mission
Decayed Amateur Technology
Bus & Motor
Unknown
Mass
Unknown
Launch date (UTC)
2017-07-14 (9 years ago)
Launch vehicle
SOYUZ-2-1A
Launch site
Tyuratam Missile And Space Complex (TTMTR)
Object type
Unknown
Shape & HBR
Box + Pyramid, 1.0 m
Radar Cross Section
0.035 m², Small (<0.1 m²)

Expand to show TLE details & history
Last TLE update: 1 year ago

TLE from 1 year ago
0 OBJECT F
1 42830U 17042F   25015.79437342  .16566363  23380-5  13045-2 0  9995
2 42830  97.3125 220.4047 0007235 314.2941  45.7764 16.40208236410815
Epoch: 2025-01-15T19:03Z
TLE epoch observation values (Epoch: 2025-01-15T19:03:53.863Z)
Latitude
-0.00009°
Longitude
178.94868°
Altitude
165.202 km
Speed
7.809 km/s
True Right ascension
14h 41m 37s
True Declination
0° 00' 00"
Sunlit
Object was in daylight at epoch
Visualization orbit readout
Latitude
Unknown
Longitude
Unknown
Altitude
Unknown
Speed
Unknown
Apparent Right ascension
Unknown
Apparent Declination
Unknown
Sunlit
N/A
Visualization observer readout
Local Sidereal Time
17:53:54
Azimuth
Unknown
Elevation
Unknown
Doppler factor
Unknown
Orbital elements
Apogee altitude
166.784 km
Perigee altitude
157.32 km
Semi-major axis
6,540.189 km
Eccentricity
0.00072
Inclination
97.3125°
RAAN
220.4047°
Arg. of periapsis
314.2941°
True anomaly
45.83585°
Mean anomaly
45.7764°
Eccentric anomaly
45.80612°
Mean motion
4.10353 °/min
Orbital period
87.73 mins
BSTAR
0.0013045
Loading maneuver chart data...
Computing Atmospheric mass density...
Loading historical data...
Loading historical data...
Loading historical data...
Loading historical data...
Loading historical data...
Loading historical data...
Loading historical data...

Documentation

Showing up to 5 results
|